Snowfall_Accumulation
2.3 3.3 3.2 3.5 3.0 1.9 1.9 1.1 0.5 1.0 0.7 0.3 0.2 0.1 0.4 0.4 0.3 0.2 0.2 0.1 0.0 0.0
2.3 2.4 3.3 3.2 3.1 2.4 2.1 2.1 1.6 0.8 1.0 0.7 0.3 0.2 0.2 0.6 0.3 0.3 0.2 0.2 0.0 0.0
1.9 2.6 2.5 2.7 3.3 2.9 2.0 2.9 2.4 1.9 0.9 0.9 0.6 0.3 0.2 0.1 0.1 0.4 0.3 0.2 0.1 0.0
1.9 1.9 2.0 2.6 2.3 3.2 2.6 2.3 2.9 2.1 1.9 0.9 0.9 0.5 0.4 0.1 0.1 0.2 0.3 0.2 0.2 0.0
2.2 1.9 3.5 2.6 2.4 2.0 2.8 2.7 2.6 2.6 1.7 1.5 0.8 0.7 0.6 0.3 0.1 0.1 0.2 0.2 0.4 0.1
4.7 4.0 2.6 3.3 2.8 1.7 1.9 2.5 2.8 2.6 2.6 1.6 1.7 1.1 0.6 0.6 0.4 0.2 0.1 0.1 0.3 0.2
6.0 5.8 6.0 4.3 4.4 3.7 2.5 2.3 2.5 2.9 2.7 2.3 1.8 1.4 0.8 0.8 0.6 0.2 0.1 0.1 0.1 0.1
5.9 5.7 5.4 5.8 5.1 4.7 4.1 3.4 3.4 3.2 2.6 2.5 2.4 1.4 1.9 1.1 0.8 0.5 0.2 0.1 0.0 0.1
6.7 6.3 6.5 6.5 6.9 5.3 5.3 5.2 4.7 4.9 4.2 4.1 2.7 nan nan 0.7 0.8 0.3 0.3 0.2 0.1 0.0
8.1 7.1 7.7 7.4 6.5 6.0 5.7 5.2 5.8 6.7 5.8 5.7 3.7 nan nan nan 0.6 0.7 0.4 0.3 0.1 0.0
6.8 7.2 6.8 6.7 6.7 6.0 5.6 6.0 6.8 6.5 6.7 6.4 3.0 nan nan nan 1.3 1.2 0.7 0.5 0.2 0.1
6.4 6.3 6.5 6.4 7.3 7.0 7.3 6.7 7.0 7.1 7.0 7.1 4.4 nan nan 4.9 5.0 3.3 1.8 1.0 0.5 0.2
5.9 6.5 7.1 7.0 6.9 7.7 7.2 8.1 7.7 7.4 7.9 nan 7.4 nan nan nan 8.8 11.9 5.4 2.1 0.8 nan
3.9 6.5 6.5 6.6 5.9 6.8 7.9 6.8 6.6 6.4 6.5 6.9 7.7 5.2 nan nan 8.0 9.6 10.9 6.4 3.7 1.1
Water_Equivalent
0.23 0.42 0.38 0.44 0.38 0.26 0.26 0.16 0.08 0.15 0.10 0.05 0.03 0.01 0.07 0.07 0.06 0.03 0.05 0.01 0.00 0.00
0.25 0.23 0.36 0.39 0.40 0.31 0.31 0.28 0.22 0.13 0.15 0.10 0.05 0.03 0.03 0.09 0.05 0.08 0.04 0.04 0.00 0.00
0.18 0.28 0.26 0.26 0.36 0.35 0.25 0.40 0.33 0.28 0.14 0.15 0.10 0.05 0.03 0.02 0.03 0.07 0.06 0.04 0.02 0.00
0.25 0.22 0.21 0.27 0.20 0.34 0.31 0.29 0.39 0.29 0.29 0.14 0.15 0.08 0.06 0.02 0.02 0.04 0.05 0.03 0.05 0.01
0.66 0.29 0.57 0.33 0.27 0.17 0.30 0.33 0.32 0.36 0.24 0.25 0.15 0.14 0.11 0.06 0.02 0.03 0.05 0.05 0.08 0.02
0.80 0.91 0.58 0.74 0.50 0.21 0.17 0.25 0.34 0.34 0.34 0.23 0.28 0.19 0.12 0.10 0.06 0.04 0.03 0.04 0.05 0.04
0.78 0.83 1.06 0.84 0.91 0.84 0.45 0.29 0.28 0.38 0.39 0.34 0.28 0.27 0.14 0.13 0.10 0.05 0.03 0.02 0.03 0.03
0.67 0.71 0.72 0.94 0.90 0.88 0.88 0.76 0.62 0.45 0.40 0.39 0.38 0.22 0.32 0.19 0.16 0.11 0.05 0.03 0.01 0.01
0.70 0.71 0.76 0.81 0.93 0.86 0.87 0.92 0.95 0.99 0.83 0.77 0.46 nan nan 0.14 0.15 0.07 0.06 0.05 0.02 0.01
0.79 0.72 0.83 0.85 0.78 0.79 0.83 0.80 0.88 1.07 1.10 1.14 0.67 nan nan nan 0.13 0.15 0.09 0.07 0.03 0.01
0.62 0.68 0.69 0.71 0.73 0.71 0.73 0.80 0.95 0.94 1.00 1.12 0.49 nan nan nan 0.27 0.29 0.18 0.10 0.05 0.03
0.53 0.56 0.59 0.61 0.72 0.76 0.87 0.83 0.89 0.98 1.07 1.11 0.77 nan nan 1.15 1.37 0.74 0.42 0.22 0.12 0.06
0.47 0.56 0.61 0.62 0.65 0.77 0.81 0.95 0.97 0.95 1.09 nan 1.22 nan nan nan 1.87 2.48 1.24 0.49 0.18 nan
0.31 0.58 0.57 0.60 0.54 0.66 0.83 0.78 0.78 0.77 0.81 0.91 1.21 0.92 nan nan 1.58 1.93 2.22 1.43 0.79 0.26
SL_Ratio
9.7 7.8 8.2 7.9 7.7 7.1 7.3 7.2 6.6 7.0 6.5 6.2 5.7 5.5 6.2 5.4 5.4 5.4 4.7 5.7 5.7 nan
9.3 10.3 9.1 8.3 7.8 7.8 6.9 7.3 7.3 6.7 6.7 6.6 6.0 5.7 6.4 5.9 5.8 4.5 4.7 4.8 5.5 nan
10.6 9.4 9.6 10.4 9.1 8.2 7.9 7.3 7.2 6.8 6.7 5.8 6.4 6.3 5.1 6.1 4.8 5.3 4.6 4.2 5.5 nan
7.5 8.6 9.5 9.9 11.6 9.7 8.5 8.1 7.3 7.3 6.7 6.5 5.8 5.9 6.4 4.6 3.9 4.7 5.1 5.1 4.0 4.5
3.3 6.4 6.2 7.8 9.0 11.4 9.6 8.3 8.0 7.2 7.3 6.1 5.7 5.4 5.8 6.1 4.9 4.6 4.4 4.6 4.6 3.8
5.8 4.4 4.5 4.5 5.6 7.9 10.7 9.7 8.1 7.5 7.6 7.0 5.9 5.7 5.3 5.7 5.8 5.3 4.8 4.0 4.7 4.6
7.7 7.1 5.7 5.1 4.9 4.4 5.5 8.1 8.8 7.5 7.1 6.9 6.3 5.4 5.6 5.6 5.6 5.0 4.6 3.9 3.8 4.4
8.8 8.0 7.5 6.2 5.7 5.3 4.6 4.5 5.5 7.0 6.5 6.4 6.3 6.3 6.0 5.5 5.0 5.1 4.2 4.0 3.6 4.4
9.5 8.8 8.6 8.0 7.4 6.2 6.1 5.7 4.9 4.9 5.1 5.2 5.9 nan nan 5.2 5.1 3.8 4.5 4.3 3.9 4.4
10.2 9.9 9.3 8.6 8.3 7.6 6.9 6.5 6.6 6.3 5.3 5.0 5.5 nan nan nan 4.5 4.5 4.7 4.7 4.1 3.6
10.9 10.6 10.0 9.4 9.2 8.4 7.6 7.5 7.2 6.9 6.7 5.7 6.0 nan nan nan 4.6 4.3 4.3 4.7 4.4 3.9
12.0 11.3 11.0 10.6 10.1 9.3 8.4 8.0 7.9 7.2 6.6 6.4 5.7 nan nan 4.3 3.7 4.4 4.4 4.4 4.5 4.4
12.7 11.7 11.5 11.3 10.7 10.0 8.9 8.5 8.0 7.8 7.2 nan 6.1 nan nan nan 4.7 4.8 4.4 4.3 4.6 nan
12.7 11.3 11.4 11.0 10.8 10.2 9.4 8.8 8.4 8.3 8.0 7.6 6.4 5.6 nan nan 5.0 5.0 4.9 4.5 4.6 4.4